EW9592 Weather Reports


Display with metric or nautical units.
time (UTC)temp
F
wind
direction
speed
MPH
gust
MPH
rain 1hr
in
rain 24hr
in
rain mn
in
humidity
%
barometer
mb
20260905070030 75 311 0.0 0.0 0.00 0.00 0.00 91 1013.4
20260905064529 75 310 0.0 0.0 0.00 0.00 0.00 91 1013.4
20260905063027 75 311 0.0 0.0 0.00 0.00 0.00 91 1013.7
20260905061529 76 311 0.0 0.0 0.00 0.00 0.00 91 1013.9
20260905060025 76 311 0.0 0.0 0.00 0.00 0.00 91 1014.0
20260905054538 76 311 0.0 0.0 0.00 0.00 0.00 91 1014.0
20260905053019 76 311 0.0 0.0 0.00 0.00 0.00 91 1014.0
20260905051520 76 311 0.0 0.0 0.00 0.00 0.00 91 1014.1
20260905050018 77 311 0.0 0.0 0.00 0.00 0.00 91 1014.0
20260905044518 77 311 0.0 0.0 0.00 0.00 0.00 91 1014.3
20260905043018 77 311 0.0 0.0 0.00 0.00 0.00 91 1014.3
20260905041513 77 311 0.0 0.0 0.00 0.00 0.00 91 1014.4
20260905040015 77 311 0.0 0.0 0.00 0.00 0.00 91 1014.3
20260905034510 78 311 0.0 0.0 0.00 0.00 0.00 91 1014.3
20260905033009 78 311 0.0 0.0 0.00 0.00 0.00 91 1014.3
20260905031509 78 311 0.0 0.0 0.00 0.00 0.00 91 1014.4
20260905030009 78 311 0.0 0.0 0.00 0.00 0.00 90 1014.4
20260905024512 78 311 0.0 0.0 0.00 0.00 0.00 90 1014.4
20260905023016 79 311 0.0 0.0 0.00 0.00 0.00 90 1014.2
20260905021507 79 311 0.0 0.0 0.00 0.00 0.00 90 1014.2
20260905020007 79 311 0.0 0.0 0.00 0.00 0.00 90 1014.2
20260905014507 79 311 0.0 0.0 0.00 0.00 0.00 90 1014.1
20260905013006 80 311 0.0 0.0 0.00 0.00 0.00 90 1013.9
20260905011505 80 311 0.0 0.0 0.00 0.00 0.00 89 1013.7
20260905010005 81 311 0.0 0.0 0.00 0.00 0.00 89 1013.6
20260905004507 82 311 0.0 0.0 0.00 0.00 0.00 88 1013.3
20260905003004 82 311 0.0 0.0 0.00 0.00 0.00 88 1013.3
20260905001503 83 311 0.0 0.0 0.00 0.00 0.00 87 1013.1
20260905000004 84 311 0.0 0.0 0.00 0.00 0.00 87 1013.1
20260904234505 85 311 0.0 0.0 0.00 0.00 0.00 85 1013.0
20260904233002 86 311 0.0 0.0 0.00 0.00 0.00 84 1013.1
20260904231500 86 311 0.0 0.0 0.00 0.00 0.00 83 1013.2
20260904224607 88 311 0.0 0.0 0.00 0.00 0.00 78 1013.5
20260904223057 89 311 0.0 0.0 0.00 0.00 0.00 76 1013.7
20260904221559 90 311 0.0 0.0 0.00 0.00 0.00 76 1013.7
20260904220056 91 311 0.0 0.0 0.00 0.00 0.00 72 1013.7
20260904214554 92 311 0.0 1.0 0.00 0.00 0.00 72 1013.7
20260904213052 93 319 0.0 0.0 0.00 0.00 0.00 70 1013.7
20260904211552 92 320 0.0 1.0 0.00 0.00 0.00 64 1013.7
20260904210054 93 12 0.0 1.0 0.00 0.00 0.00 69 1013.8
20260904204547 94 12 0.0 1.0 0.00 0.00 0.00 66 1013.8
20260904203044 93 9 0.0 1.0 0.00 0.00 0.00 61 1014.0
20260904201552 93 105 0.0 2.0 0.00 0.00 0.00 66 1014.3
20260904200042 93 131 0.0 1.0 0.00 0.00 0.00 66 1014.4
20260904194549 93 251 0.0 1.0 0.00 0.00 0.00 65 1014.7
20260904193036 93 255 0.0 1.0 0.00 0.00 0.00 63 1014.9
20260904191534 93 249 0.0 1.0 0.00 0.00 0.00 65 1015.1
20260904190033 94 110 0.0 1.0 0.00 0.00 0.00 65 1015.3
20260904184532 94 230 0.0 1.0 0.00 0.00 0.00 60 1015.4
20260904183031 93 356 0.0 1.0 0.00 0.00 0.00 59 1015.6
20260904181530 94 20 0.0 2.0 0.00 0.00 0.00 65 1015.7
20260904180032 93 30 0.0 1.0 0.00 0.00 0.00 62 1016.0
20260904174530 93 348 0.0 3.0 0.00 0.00 0.00 64 1016.1
20260904173028 93 356 0.0 2.0 0.00 0.00 0.00 66 1016.3
20260904171524 93 167 0.0 1.0 0.00 0.00 0.00 64 1016.3
20260904170024 93 62 0.0 1.0 0.00 0.00 0.00 68 1016.4
20260904164522 93 343 0.0 1.0 0.00 0.00 0.00 63 1016.5
20260904163028 93 355 0.0 2.0 0.00 0.00 0.00 64 1016.5
20260904161517 92 326 0.0 2.0 0.00 0.00 0.00 67 1016.5
20260904160015 92 360 0.0 1.0 0.00 0.00 0.00 71 1016.6
20260904154510 90 360 0.0 1.0 0.00 0.00 0.00 71 1016.5
20260904153016 88 1 0.0 1.0 0.00 0.00 0.00 79 1016.5
20260904151501 86 201 0.0 1.0 0.00 0.00 0.00 84 1016.5
20260904150123 85 78 0.0 0.0 0.00 0.00 0.00 85 1016.4
20260904144555 83 77 0.0 1.0 0.00 0.00 0.00 88 1016.5
20260904143049 81 200 0.0 1.0 0.00 0.00 0.00 90 1016.6
20260904141547 80 151 0.0 0.0 0.00 0.00 0.00 91 1016.5
20260904140042 78 151 0.0 0.0 0.00 0.00 0.00 91 1016.5
20260904134547 77 155 0.0 0.0 0.00 0.00 0.00 92 1016.4
20260904133034 76 155 0.0 0.0 0.00 0.00 0.00 92 1016.5
20260904131532 75 155 0.0 0.0 0.00 0.00 0.00 92 1016.5
20260904130036 74 155 0.0 0.0 0.00 0.00 0.00 92 1016.5
20260904124532 73 155 0.0 0.0 0.00 0.00 0.00 92 1016.5
20260904123029 73 155 0.0 0.0 0.00 0.00 0.00 92 1016.3
20260904121527 72 155 0.0 0.0 0.00 0.00 0.00 92 1016.1
20260904120027 72 155 0.0 0.0 0.00 0.00 0.00 92 1016.0
20260904114532 72 155 0.0 0.0 0.00 0.00 0.00 92 1015.8
20260904113022 72 155 0.0 0.0 0.00 0.00 0.00 92 1015.7
20260904111527 72 155 0.0 0.0 0.00 0.00 0.00 92 1015.6
20260904110024 72 155 0.0 0.0 0.00 0.00 0.00 92 1015.6
20260904104522 72 155 0.0 0.0 0.00 0.00 0.00 92 1015.4
20260904103020 72 155 0.0 0.0 0.00 0.00 0.00 92 1015.5
20260904101520 72 155 0.0 0.0 0.00 0.00 0.00 92 1015.4
20260904100019 72 155 0.0 0.0 0.00 0.00 0.00 92 1015.4
20260904094533 72 155 0.0 0.0 0.00 0.00 0.00 91 1015.2
20260904093018 73 155 0.0 0.0 0.00 0.00 0.00 91 1015.3
20260904091516 73 155 0.0 0.0 0.00 0.00 0.00 91 1015.3
20260904090016 73 155 0.0 0.0 0.00 0.00 0.00 91 1015.3
20260904084517 73 155 0.0 0.0 0.00 0.00 0.00 91 1015.2
20260904083026 73 155 0.0 0.0 0.00 0.00 0.00 91 1015.3
20260904081514 73 155 0.0 0.0 0.00 0.00 0.00 91 1015.3
20260904080013 73 155 0.0 0.0 0.00 0.00 0.00 91 1015.2
20260904074511 73 155 0.0 0.0 0.00 0.00 0.00 91 1015.0
20260904073012 74 155 0.0 0.0 0.00 0.00 0.00 91 1015.1
20260904071510 74 155 0.0 0.0 0.00 0.00 0.00 91 1015.1